Hillsdale, MI

3:01 AM EST on December 08, 2019 (GMT -0500)
Hillsdale Municipal

Weather History for KJYM - October, 2019

Change the Weather History Date:

Tuesday, October 22, 2019

  Actual Average Record
Temperature  
Mean Temperature 52 °F -  
Max Temperature 53 °F 57 °F 80 °F (1963)
Min Temperature 45 °F 37 °F 24 °F (1967)
Degree Days  
Heating Degree Days 14    
Growing Degree Days 2 (Base 50)    
Moisture  
Dew Point 41 °F    
Average Humidity 76    
Maximum Humidity 91    
Minimum Humidity 66    
Precipitation  
Precipitation 0.03 in - - ()
Sea Level Pressure  
Sea Level Pressure 29.67 in    
Wind  
Wind Speed 11 mph ()    
Max Wind Speed 21 mph    
Max Gust Speed 34 mph    
Visibility 9.9 miles    
Events Rain    
Averages and records for this station are not official NWS values.
T = Trace of Precipitation, MM = Missing Value Source: Averaged Metar Reports

Daily Weather History Graph

Daily Weather History Graph

Search for Another Location

Airport or City:

Astronomy

Oct. 22, 2019 Rise Set
Actual Time 7:58 AM EDT 6:46 PM EDT
Civil Twilight 7:30 AM EDT 7:14 PM EDT
Nautical Twilight 6:57 AM EDT 7:47 PM EDT
Astronomical Twilight 6:25 AM EDT 8:19 PM EDT
Moon 12:59 AM EDT (10/22) 4:02 PM EDT (10/22)
Length of Visible Light 11h 44m
Length of Day
10h 47m
Last Quarter, 37% of the Moon is Illuminated
Oct 22
Last Quarter
Oct 27
New
Nov 4
First Quarter
Nov 12
Full
Nov 19
Last Quarter

Hourly Weather History & Observations

Time (EDT) Temp. Windchill Dew Point Humidity Pressure Visibility Wind Dir Wind Speed Gust Speed Precip Events Conditions
12:18 AM 58.6 °F - 55.9 °F 91% 29.65 in 10.0 mi WSW 15.0 mph 23.0 mph N/A   Overcast
12:36 AM 55.0 °F - 50.4 °F 84% 29.64 in 10.0 mi WSW 10.4 mph 16.1 mph N/A   Mostly Cloudy
12:55 AM 53.6 °F - 50.0 °F 88% 29.66 in 10.0 mi WSW 6.9 mph - N/A   Scattered Clouds
12:56 AM 53.4 °F - 50.0 °F 88% 29.66 in 10.0 mi WSW 8.1 mph - N/A   Scattered Clouds
1:15 AM 52.3 °F - 49.6 °F 91% 29.66 in 10.0 mi WSW 10.4 mph - N/A   Scattered Clouds
1:39 AM 51.8 °F - 47.8 °F 86% 29.67 in 10.0 mi SSW 6.9 mph - N/A   Scattered Clouds
1:57 AM 52.0 °F - 46.6 °F 82% 29.66 in 10.0 mi SW 9.2 mph - N/A   Scattered Clouds
2:15 AM 51.1 °F - 44.2 °F 77% 29.66 in 10.0 mi SW 6.9 mph - N/A   Scattered Clouds
2:16 AM 51.1 °F - 44.2 °F 77% 29.67 in 10.0 mi SW 6.9 mph - N/A   Scattered Clouds
2:35 AM 50.7 °F - 42.8 °F 74% 29.67 in 10.0 mi SW 6.9 mph - N/A   Clear
2:55 AM 50.0 °F - 42.1 °F 74% 29.67 in 10.0 mi SSW 6.9 mph - N/A   Scattered Clouds
3:18 AM 49.1 °F - 42.1 °F 77% 29.66 in 10.0 mi South 5.8 mph - N/A   Clear
3:36 AM 48.2 °F - 41.9 °F 79% 29.64 in 10.0 mi South 5.8 mph - N/A   Clear
3:55 AM 47.7 °F - 41.7 °F 80% 29.64 in 10.0 mi South 5.8 mph - N/A   Clear
3:56 AM 47.7 °F - 41.7 °F 80% 29.64 in 10.0 mi South 5.8 mph - N/A   Clear
4:15 AM 46.8 °F - 41.2 °F 81% 29.63 in 10.0 mi South 6.9 mph - N/A   Clear
4:39 AM 46.4 °F 42.4 °F 41.5 °F 83% 29.62 in 10.0 mi South 8.1 mph - N/A   Clear
4:57 AM 47.3 °F - 41.5 °F 80% 29.62 in 10.0 mi South 9.2 mph - N/A   Clear
5:15 AM 47.8 °F - 41.7 °F 79% 29.61 in 10.0 mi South 9.2 mph - N/A   Clear
5:16 AM 47.7 °F - 41.7 °F 80% 29.62 in 10.0 mi South 10.4 mph - N/A   Clear
5:35 AM 47.8 °F - 41.9 °F 80% 29.62 in 10.0 mi South 10.4 mph - N/A   Clear
5:36 AM 47.8 °F - 41.9 °F 80% 29.62 in 10.0 mi South 9.2 mph - N/A   Clear
5:55 AM 47.8 °F - 41.9 °F 80% 29.62 in 10.0 mi South 8.1 mph 16.1 mph N/A   Clear
6:36 AM 47.7 °F - 41.7 °F 80% 29.62 in 10.0 mi SSW 10.4 mph 17.3 mph N/A   Clear
6:55 AM 47.8 °F - 41.0 °F 77% 29.62 in 10.0 mi SSW 12.7 mph 18.4 mph N/A   Clear
6:56 AM 47.8 °F - 41.0 °F 77% 29.62 in 10.0 mi SSW 9.2 mph 17.3 mph N/A   Clear
7:15 AM 47.5 °F - 40.8 °F 78% 29.63 in 10.0 mi SSW 10.4 mph - N/A   Clear
7:39 AM 47.1 °F - 40.5 °F 78% 29.63 in 10.0 mi South 9.2 mph - N/A   Clear
7:57 AM 46.8 °F - 40.5 °F 79% 29.63 in 10.0 mi South 10.4 mph 24.2 mph N/A   Clear
8:15 AM 46.8 °F - 40.3 °F 78% 29.62 in 10.0 mi South 9.2 mph - N/A   Clear
8:16 AM 46.8 °F - 40.3 °F 78% 29.62 in 10.0 mi South 10.4 mph - N/A   Clear
8:35 AM 47.1 °F - 40.6 °F 78% 29.62 in 10.0 mi South 9.2 mph - N/A   Clear
8:55 AM 47.8 °F - 41.0 °F 77% 29.63 in 10.0 mi SSW 12.7 mph 18.4 mph N/A   Clear
9:00 AM 48.2 °F - 41.0 °F 76% 29.63 in 10.0 mi SSW 13.8 mph 21.9 mph N/A   Clear
9:18 AM 48.6 °F - 41.0 °F 75% 29.63 in 10.0 mi SSW 12.7 mph 23.0 mph N/A   Clear
9:36 AM 49.1 °F - 41.4 °F 75% 29.63 in 10.0 mi SSW 16.1 mph 21.9 mph N/A   Scattered Clouds
9:55 AM 49.3 °F - 41.0 °F 73% 29.63 in 10.0 mi SW 17.3 mph 26.5 mph N/A   Mostly Cloudy
10:15 AM 49.5 °F - 41.2 °F 73% 29.63 in 10.0 mi SSW 13.8 mph 21.9 mph N/A   Mostly Cloudy
10:16 AM 49.6 °F - 41.4 °F 73% 29.63 in 10.0 mi SW 12.7 mph 21.9 mph N/A   Mostly Cloudy
10:39 AM 50.2 °F - 41.0 °F 71% 29.63 in 10.0 mi SW 19.6 mph 25.3 mph N/A   Mostly Cloudy
10:57 AM 50.7 °F - 41.2 °F 70% 29.63 in 10.0 mi SW 16.1 mph 25.3 mph N/A   Mostly Cloudy
11:15 AM 51.3 °F - 40.8 °F 67% 29.62 in 10.0 mi SSW 18.4 mph 28.8 mph N/A   Overcast
11:16 AM 51.3 °F - 40.5 °F 67% 29.63 in 10.0 mi SSW 17.3 mph 28.8 mph N/A   Overcast
11:35 AM 50.7 °F - 40.1 °F 67% 29.63 in 10.0 mi SSW 19.6 mph 27.6 mph N/A   Overcast
11:36 AM 50.5 °F - 39.9 °F 67% 29.63 in 10.0 mi SW 16.1 mph 27.6 mph N/A   Overcast
11:55 AM 50.4 °F - 39.7 °F 67% 29.63 in 10.0 mi SW 15.0 mph 27.6 mph N/A   Overcast
12:00 PM 50.7 °F - 40.1 °F 67% 29.63 in 10.0 mi SW 13.8 mph 27.6 mph N/A   Overcast
12:18 PM 50.4 °F - 40.1 °F 68% 29.63 in 10.0 mi SW 16.1 mph 27.6 mph N/A   Overcast
12:36 PM 51.6 °F - 40.6 °F 66% 29.63 in 10.0 mi SW 13.8 mph 28.8 mph N/A   Overcast
12:55 PM 50.7 °F - 39.7 °F 66% 29.63 in 10.0 mi SW 16.1 mph 27.6 mph N/A   Overcast
12:56 PM 50.7 °F - 39.6 °F 66% 29.63 in 10.0 mi SW 15.0 mph 27.6 mph N/A   Overcast
1:15 PM 50.7 °F - 40.1 °F 67% 29.64 in 10.0 mi SW 15.0 mph 27.6 mph N/A   Overcast
1:16 PM 50.9 °F - 40.3 °F 67% 29.63 in 10.0 mi SSW 16.1 mph 27.6 mph N/A   Overcast
1:39 PM 50.2 °F - 39.4 °F 66% 29.64 in 10.0 mi SSW 15.0 mph 26.5 mph N/A   Overcast
1:57 PM 50.2 °F - 39.2 °F 66% 29.64 in 10.0 mi SW 15.0 mph 34.5 mph N/A   Overcast
2:15 PM 48.7 °F - 41.0 °F 75% 29.64 in 7.0 mi SW 17.3 mph 25.3 mph N/A Rain Rain
2:35 PM 47.8 °F - 43.3 °F 84% 29.65 in 10.0 mi SW 16.1 mph 25.3 mph 0.01 in   Overcast
2:36 PM 47.8 °F - 43.2 °F 84% 29.65 in 10.0 mi SW 15.0 mph 25.3 mph 0.01 in   Overcast
2:55 PM 49.8 °F - 41.9 °F 74% 29.65 in 10.0 mi WSW 17.3 mph 26.5 mph 0.01 in   Overcast
3:18 PM 49.8 °F - 41.2 °F 72% 29.65 in 10.0 mi WSW 15.0 mph 24.2 mph N/A   Overcast
3:36 PM 50.0 °F - 40.6 °F 70% 29.65 in 10.0 mi SW 11.5 mph 24.2 mph N/A   Overcast
3:55 PM 50.0 °F - 39.6 °F 67% 29.66 in 10.0 mi SW 20.7 mph 25.3 mph N/A   Overcast
3:56 PM 50.0 °F - 39.6 °F 67% 29.66 in 10.0 mi SW 19.6 mph 25.3 mph N/A   Overcast
4:15 PM 49.5 °F - 39.2 °F 68% 29.67 in 10.0 mi SW 17.3 mph 21.9 mph N/A   Overcast
4:16 PM 49.5 °F - 39.2 °F 68% 29.67 in 10.0 mi WSW 13.8 mph 21.9 mph N/A   Overcast
4:39 PM 46.6 °F - 40.3 °F 79% 29.69 in 10.0 mi WSW 16.1 mph 27.6 mph 0.01 in   Overcast
4:57 PM 45.5 °F 40.3 °F 41.7 °F 87% 29.69 in 7.0 mi SW 10.4 mph 24.2 mph 0.02 in   Light Drizzle
5:15 PM 45.9 °F 39.4 °F 41.5 °F 85% 29.69 in 7.0 mi WSW 15.0 mph 25.3 mph N/A   Overcast
5:35 PM 45.5 °F 38.3 °F 40.6 °F 83% 29.70 in 10.0 mi WSW 17.3 mph 26.5 mph N/A   Overcast
5:36 PM 45.5 °F 38.3 °F 40.5 °F 83% 29.70 in 10.0 mi WSW 17.3 mph 26.5 mph N/A   Overcast
5:55 PM 46.4 °F 41.5 °F 40.8 °F 81% 29.71 in 10.0 mi SW 10.4 mph 20.7 mph N/A   Mostly Cloudy
5:59 PM 45.9 °F 40.0 °F 40.5 °F 81% 29.71 in 10.0 mi SW 12.7 mph 20.7 mph N/A   Mostly Cloudy
6:17 PM 45.9 °F 40.4 °F 40.3 °F 81% 29.72 in 10.0 mi SW 11.5 mph 20.7 mph N/A   Mostly Cloudy
6:35 PM 46.0 °F 40.2 °F 40.1 °F 80% 29.72 in 10.0 mi SW 12.7 mph 19.6 mph N/A   Overcast
6:55 PM 46.4 °F 41.5 °F 39.4 °F 77% 29.73 in 10.0 mi SW 10.4 mph 18.4 mph N/A   Overcast
6:56 PM 46.4 °F 42.4 °F 39.4 °F 77% 29.73 in 10.0 mi SW 8.1 mph 18.4 mph N/A   Overcast
7:15 PM 46.4 °F 41.1 °F 39.4 °F 77% 29.74 in 10.0 mi SW 11.5 mph 16.1 mph N/A   Overcast
7:20 PM 46.4 °F 41.1 °F 39.2 °F 76% 29.74 in 10.0 mi SW 11.5 mph 17.3 mph N/A   Overcast
7:38 PM 46.6 °F - 39.4 °F 76% 29.75 in 10.0 mi SSW 8.1 mph - N/A   Overcast
7:56 PM 46.6 °F - 39.7 °F 77% 29.75 in 10.0 mi SSW 8.1 mph - N/A   Overcast
8:16 PM 46.8 °F - 40.1 °F 78% 29.75 in 10.0 mi SSW 8.1 mph - N/A   Overcast
8:35 PM 46.8 °F - 40.6 °F 79% 29.75 in 10.0 mi SSW 9.2 mph - N/A   Overcast
8:36 PM 46.8 °F - 40.6 °F 79% 29.75 in 10.0 mi SSW 9.2 mph - N/A   Overcast
8:59 PM 46.9 °F - 41.0 °F 80% 29.75 in 10.0 mi SSW 10.4 mph 16.1 mph N/A   Overcast
9:17 PM 47.1 °F - 40.5 °F 78% 29.75 in 10.0 mi SSW 9.2 mph - N/A   Overcast
9:35 PM 47.5 °F - 40.1 °F 76% 29.76 in 10.0 mi SSW 12.7 mph 20.7 mph N/A   Overcast
9:55 PM 47.3 °F - 40.1 °F 76% 29.77 in 10.0 mi SW 9.2 mph 19.6 mph N/A   Overcast
9:56 PM 47.3 °F - 40.1 °F 76% 29.77 in 10.0 mi SW 10.4 mph 19.6 mph N/A   Overcast
10:15 PM 47.3 °F - 39.0 °F 73% 29.77 in 10.0 mi WSW 10.4 mph 18.4 mph N/A   Mostly Cloudy
10:20 PM 47.3 °F - 38.7 °F 72% 29.77 in 10.0 mi WSW 11.5 mph 20.7 mph N/A   Mostly Cloudy
10:38 PM 47.3 °F - 37.8 °F 69% 29.78 in 10.0 mi WSW 11.5 mph 20.7 mph N/A   Scattered Clouds
10:56 PM 46.9 °F - 37.2 °F 69% 29.78 in 10.0 mi WSW 11.5 mph 18.4 mph N/A   Scattered Clouds
11:15 PM 47.1 °F - 36.9 °F 68% 29.79 in 10.0 mi WSW 10.4 mph 23.0 mph N/A   Mostly Cloudy
11:35 PM 47.3 °F - 37.2 °F 68% 29.79 in 10.0 mi WSW 8.1 mph 11.5 mph N/A   Overcast
11:36 PM 47.1 °F - 37.2 °F 68% 29.79 in 10.0 mi WSW 10.4 mph - N/A   Overcast
11:59 PM 47.1 °F - 36.7 °F 67% 29.78 in 10.0 mi WSW 11.5 mph 21.9 mph N/A   Overcast